LiveATC.Net - Listen to live air traffic control over the Internet!


ICAO: KVAY  IATA: VAY   Airport: South Jersey Regional Airport
City: Mount Holly   State/Province: New Jersey
Country: United States   Continent: North America
KVAY METAR Weather: KVAY 181254Z AUTO 26006KT 10SM OVC090 12/06 A2991 RMK AO2 SLP128 T01220056
KVAY Flight Activity (FlightAware)
KVAY Airport Info   (iFlightPlanner)
KVAY VFR Sectional Chart   (iFlightPlanner) 
KVAY IFR Low Chart   (iFlightPlanner) 

SNJ Area CTAF 122.8
Feed Status: UP   Listeners: 0
Listen in your browser - HTML5 player (in browser, HTML5)
Click here to listen with your own player (launches your MP3 player)
Archive Access: SNJ Area CTAF 122.8
FacilityFrequency
CTAF122.800

NOTICE

Unauthorized use prohibited. See LiveATC.net Terms of Service


Airport/ARTCC Code
Frequency Search
(e.g., 124.400, 128.75)
Site-wide search
 


Browse Feeds
Top 50 Feeds
HF Oceanic Feeds
Coverage Map
Bad Weather Areas

LiveATC FAQ
Offer LiveATC feed
Contact LiveATC.net
Press Inquiries

LiveATC on iPhone
LiveATC on Android

Windows Phone
Windows 8/10

LiveATC Mobile
(Mobile browser)

ATC Audio Archives
Interesting Recordings

LiveATC Forums


Home Page
About LiveATC.net
Make a Donation
Terms of Use
Privacy Policy

Canadian Air Freqs

AIRMETs/SIGMETs

FAA Airport Status
NAS Status
Arrival Demand


Server Software By:
Icecast.org
Liquidsoap